Vertical_Velocity
2 2 2 2 2 2 2 1 1 0 -0 -0 -1 -1 -1 -1 -1 0 2 4 3 2 1 2 1 -1 -2 -3 -2 0 3 7 6 4 2 -1 -3 -4 -3 -0 5 7 9 13 10 6 3 3 2 1 0 0 0 -0 0 1 -1 -4 -4 -1 5 9 10 7 4 3 4 4 3
1 1 1 1 1 1 1 1 1 1 0 -0 -1 -1 -2 -2 -2 -2 0 3 3 2 2 4 3 1 -1 -2 1 5 9 11 8 5 2 0 -0 -1 -1 -1 0 1 2 4 4 3 2 3 3 3 3 3 4 3 1 2 2 -1 -4 -4 -2 2 7 10 4 1 1 1 0
0 0 0 0 0 0 1 1 1 0 0 -0 -1 -1 -2 -2 -3 -3 -3 -3 -2 0 3 5 2 0 -0 2 8 11 11 10 12 10 7 5 4 2 0 -2 -3 -2 -2 -1 0 2 4 5 5 5 5 4 4 3 2 2 3 2 -1 -3 -2 -1 1 2 2 3 2 1 1
0 0 0 -0 -0 -1 -0 -0 0 0 0 -0 -1 -1 -1 -2 -2 -3 -4 -5 -4 -3 -1 -1 -1 1 5 8 10 11 11 11 14 13 9 5 2 -0 -2 -3 -3 -4 -3 -1 1 3 5 7 6 5 5 4 4 4 3 3 4 3 2 1 2 2 1 -0 6 8 7 2 1
-0 -0 -0 -1 -1 -1 -1 -0 0 0 0 -0 -0 -0 -0 -0 -1 -3 -4 -5 -5 -5 -3 0 4 7 9 8 8 9 11 13 12 11 8 2 -2 -3 -4 -3 -3 -2 -1 1 3 5 5 6 6 6 6 5 6 5 5 5 5 5 4 5 4 3 3 3 5 5 3 0 1
-1 -1 -1 -2 -2 -1 -1 0 0 0 0 0 -0 -0 0 0 -1 -2 -3 -4 -4 -3 -1 1 2 3 4 3 6 9 11 10 6 3 -0 -3 -4 -4 -3 -2 -0 1 2 3 5 5 5 5 5 5 6 7 6 6 7 7 5 5 6 4 2 2 2 1 2 2 2 -1 0
-1 -1 -2 -2 -2 -1 -1 -0 -0 -0 -0 -0 -0 -1 -1 -1 -1 -2 -2 -2 0 1 1 -0 -2 -3 -2 0 5 7 7 4 1 -1 -3 -4 -3 -1 0 1 2 3 3 3 4 3 3 4 4 4 4 7 6 5 6 7 4 4 4 2 0 1 2 -1 1 4 5 3 3
-1 -1 -2 -2 -1 -1 -1 -1 -1 -1 -1 -1 -1 -1 -2 -3 -3 -3 -1 2 4 3 1 -0 -2 -2 -2 -1 2 3 3 1 -1 -1 -1 -1 -0 1 3 4 3 3 2 2 2 1 2 3 3 3 3 5 5 4 4 5 3 3 2 2 0 1 2 -1 3 5 5 3 2
-0 -1 -1 -1 -1 -0 0 -0 -1 -1 -1 -2 -2 -2 -3 -4 -4 -1 2 5 4 2 -1 -2 -2 -1 0 0 -0 -0 -0 0 -0 -0 0 1 1 1 2 3 3 2 1 1 1 1 2 3 2 2 2 4 3 2 3 4 2 2 2 3 1 0 0 -0 1 2 2 0 -0
0 0 -0 -1 0 1 1 1 0 -1 -2 -2 -3 -3 -4 -4 -1 1 3 4 2 1 -1 -1 0 1 2 1 -0 -1 -0 0 1 1 1 1 1 1 1 2 2 1 -0 0 1 1 1 2 1 1 1 3 2 1 1 3 2 1 1 3 2 1 -0 -0 -0 -2 -2 -1 -1
1 0 0 0 1 1 1 0 -1 -2 -2 -3 -2 -2 -2 -0 1 1 -0 -1 -1 -0 1 3 4 4 3 2 1 0 0 1 1 1 1 1 1 1 1 1 1 0 -0 -1 0 1 1 1 1 1 1 2 2 1 1 2 2 1 1 2 2 1 -0 -0 -0 -2 -3 -3 -2
1 1 1 1 1 1 0 -1 -2 -3 -3 -1 0 1 1 1 -1 -2 -3 -2 -1 -0 1 4 5 4 3 2 2 1 1 1 2 2 2 2 2 1 1 0 0 0 -0 -0 1 1 1 0 1 1 1 1 1 0 -1 -0 1 0 0 1 2 1 0 -1 -1 -2 -3 -3 -3
1 1 1 1 0 -0 -1 -2 -3 -2 -0 2 2 1 -1 -2 -3 -3 -2 -1 -1 -1 0 2 3 3 2 1 1 1 1 1 2 2 2 2 2 2 1 1 1 0 0 0 1 1 1 0 1 1 0 -0 0 -1 -2 -2 -1 -1 -1 -0 1 0 -0 -1 -1 -2 -2 -1 -2
1 1 1 0 -1 -1 -2 -2 -1 1 1 1 -0 -1 -2 -3 -2 -2 -1 -0 -1 -1 -1 -1 0 1 1 1 1 1 1 1 1 2 1 1 1 1 1 0 1 1 0 0 1 1 -0 -1 -0 -0 -1 -1 -1 -2 -2 -2 -1 -1 -0 -0 -1 -1 -1 -2 -1 -0 1 0 -1
1 1 0 -1 -1 -1 -1 0 1 1 0 -1 -2 -2 -1 -2 -1 -1 -1 -1 -1 -2 -2 -2 -2 -1 -0 0 0 0 1 1 1 1 0 -0 -0 -0 -0 -0 -0 -0 -0 -1 -0 -1 -1 -1 -1 -1 -1 -1 -2 -2 -1 -1 -0 -0 -0 -1 -1 -2 -2 -2 -0 1 1 0 -0
0 -0 -1 -2 -1 -1 0 1 0 -0 -1 -2 -1 -1 -0 -0 -1 -1 -2 -2 -3 -3 -3 -2 -2 -2 -1 -1 -0 0 1 1 0 -0 -1 -1 -1 -2 -1 -1 -1 -1 -1 -2 -2 -1 -1 -1 -1 -1 -1 -1 -1 -1 -1 -0 -0 -0 -1 -1 -1 -2 -2 -2 0 1 1 -0 -1
-1 -2 -2 -2 -1 -1 -0 -0 -1 -1 -1 -1 -1 -1 -0 -0 -1 -2 -2 -3 -3 -3 -3 -3 -2 -2 -1 -1 -0 0 0 0 -0 -1 -1 -2 -2 -2 -2 -2 -2 -2 -2 -2 -2 -2 -1 -1 -1 -1 -1 -1 -1 -1 -1 -1 -1 -1 -1 -1 -1 -1 -1 -1 0 1 1 0 -1
-3 -3 -3 -2 -1 -1 -0 -1 -1 -1 -1 -1 -1 -1 -1 -1 -2 -2 -3 -3 -2 -2 -2 -2 -2 -2 -1 -1 -1 -0 -0 -0 -1 -1 -1 -2 -2 -3 -3 -3 -3 -3 -3 -2 -2 -1 -0 -0 -1 -1 -2 -2 -2 -2 -2 -2 -2 -0 1 2 1 0 -0 0 2 4 5 4 4
-3 -3 -2 -1 -1 -0 -1 -1 -1 -1 -1 -1 -1 -1 -2 -2 -2 -2 -2 -2 -1 -1 -1 -1 -2 -1 -1 -1 -1 -1 -1 -1 -1 -1 -2 -2 -3 -3 -4 -4 -4 -4 -3 -2 -1 0 0 0 -1 -2 -2 -2 -2 -2 -2 -2 -0 1 3 3 1 0 -0 1 4 7 9 10 11
-2 -2 -2 -1 -1 -1 -1 -1 -1 -0 -1 -1 -1 -2 -2 -2 -2 -2 -2 -1 -1 -1 -0 -1 -1 -1 -1 -1 -2 -2 -1 -1 -1 -1 -2 -2 -3 -3 -4 -4 -4 -3 -3 -1 -0 0 0 -1 -2 -2 -3 -3 -2 -2 -2 -1 0 1 1 0 0 -0 0 2 5 8 9 10 11
-1 -1 -1 -1 -1 -0 -0 -0 -0 -1 -1 -1 -1 -2 -2 -2 -1 -1 -1 -1 -0 -0 -0 -1 -1 -1 -2 -2 -2 -2 -2 -1 -1 -1 -1 -2 -2 -3 -3 -3 -3 -3 -2 -1 -0 -0 -1 -2 -3 -3 -3 -3 -3 -2 -2 -1 -0 -0 0 0 0 0 1 2 5 6 6 3 4
-1 -1 -1 -1 -1 -1 -0 -0 -1 -1 -1 -1 -1 -1 -1 -0 -0 -1 -1 -0 0 0 0 -0 -1 -2 -2 -2 -2 -2 -1 -1 -1 -1 -1 -1 -2 -2 -2 -2 -2 -2 -2 -1 -1 -1 -2 -3 -4 -4 -4 -4 -3 -3 -2 -2 -2 -2 -2 -1 -1 0 1 2 3 4 2 -4 -3
-0 -0 -0 -1 -1 -1 -1 -1 -1 -1 -1 -1 -1 -0 0 0 0 0 0 0 0 0 -0 -1 -1 -2 -2 -2 -1 -1 -1 -1 -1 -1 -1 -1 -2 -2 -2 -2 -2 -2 -2 -2 -2 -2 -3 -4 -4 -4 -4 -3 -4 -3 -3 -3 -3 -3 -3 -3 -1 0 2 3 7 13 16 12 2
-0 -0 -1 -1 -1 -2 -2 -1 -1 -1 -0 -0 -0 0 0 1 1 1 0 0 -0 -1 -1 -2 -2 -2 -2 -2 -2 -1 -1 -1 -2 -2 -2 -2 -2 -2 -2 -2 -2 -2 -2 -2 -2 -3 -3 -3 -3 -4 -4 -3 -3 -3 -3 -3 -3 -2 -1 0 1 1 2 3 12 22 29 27 11
-0 -1 -1 -1 -1 -1 -1 -1 -0 -0 0 -0 0 0 0 1 1 0 0 -0 -1 -1 -2 -2 -2 -2 -2 -2 -2 -2 -2 -2 -2 -3 -3 -3 -2 -2 -2 -2 -2 -3 -3 -3 -3 -3 -3 -2 -2 -2 -2 -2 -2 -2 -2 -3 -3 -2 0 3 3 3 2 3 8 15 20 18 4
-1 -1 -1 -1 -1 -1 -0 0 0 0 0 0 0 0 0 0 0 -0 -1 -1 -2 -2 -2 -2 -2 -2 -2 -2 -2 -3 -3 -3 -3 -3 -3 -3 -3 -3 -3 -3 -3 -3 -3 -3 -3 -3 -2 -2 -2 -2 -2 -1 -2 -3 -4 -5 -4 -3 -1 1 2 3 3 3 3 3 4 3 -0
-1 -1 -1 -1 -0 0 1 1 1 1 0 0 0 0 0 -0 -0 -1 -1 -2 -2 -2 -2 -1 -1 -2 -2 -2 -3 -3 -3 -4 -4 -4 -3 -3 -3 -4 -4 -4 -3 -3 -2 -2 -2 -2 -2 -2 -2 -2 -2 -2 -3 -4 -6 -6 -5 -4 -2 -1 0 1 2 1 -0 -2 -3 -3 -1
-1 -1 -0 0 1 1 1 1 1 0 0 0 0 0 -0 -0 -1 -1 -1 -2 -2 -1 -1 -1 -2 -2 -2 -2 -3 -3 -4 -4 -4 -4 -4 -4 -4 -4 -4 -3 -2 -1 -0 0 -0 -1 -1 -2 -3 -3 -4 -4 -5 -5 -5 -5 -4 -3 -1 -1 -1 -1 -1 -1 -2 -3 -4 -5 -4
-0 -0 0 1 1 1 1 0 0 0 0 0 0 0 -0 -0 -0 -1 -1 -1 -1 -1 -1 -1 -2 -2 -3 -3 -4 -4 -4 -4 -5 -5 -5 -5 -5 -4 -3 -1 -0 0 0 0 -0 -1 -2 -2 -3 -4 -4 -5 -6 -6 -6 -5 -4 -3 -2 -1 -1 -2 -2 -2 -3 -3 -3 -4 -4
0 0 1 1 1 0 0 -0 -0 0 0 0 0 0 0 0 -0 -0 -0 -1 -1 -1 -1 -2 -2 -3 -3 -4 -4 -5 -5 -6 -6 -6 -6 -6 -4 -3 -1 0 0 0 -0 -1 -1 -2 -2 -3 -3 -4 -4 -5 -6 -6 -6 -5 -5 -4 -3 -3 -3 -3 -3 -3 -3 -3 -3 -3 -3
1 1 1 1 0 -0 -0 -0 0 0 1 0 0 0 0 0 0 0 -0 -0 -1 -1 -1 -2 -3 -3 -4 -5 -5 -5 -6 -6 -6 -6 -5 -4 -2 -1 -1 -1 -1 -2 -2 -2 -3 -3 -3 -3 -3 -4 -4 -4 -4 -5 -5 -5 -5 -5 -4 -4 -4 -4 -3 -3 -3 -2 -2 -2 -2
1 1 0 0 -0 -0 -0 0 1 1 1 1 1 1 1 1 0 0 -0 -0 -1 -1 -2 -3 -3 -4 -5 -5 -6 -6 -6 -6 -5 -4 -3 -2 -1 -1 -2 -2 -3 -3 -4 -5 -5 -5 -5 -4 -4 -4 -4 -4 -4 -4 -4 -4 -5 -5 -4 -4 -4 -3 -3 -2 -2 -2 -1 -1 -1
0 -0 -0 -1 -1 -0 1 1 1 1 1 1 1 1 1 1 0 0 -0 -0 -1 -1 -2 -3 -4 -4 -5 -5 -5 -5 -5 -5 -5 -4 -3 -2 -2 -2 -3 -4 -5 -5 -6 -6 -6 -6 -5 -5 -5 -4 -4 -4 -4 -4 -4 -4 -4 -4 -4 -4 -3 -3 -3 -2 -2 -2 -2 -2 -2
-0 -1 -1 -1 0 1 2 2 1 1 1 1 1 1 1 1 0 0 -1 -1 -1 -2 -2 -3 -3 -4 -4 -5 -4 -5 -5 -5 -5 -4 -4 -3 -3 -3 -4 -5 -6 -6 -7 -7 -6 -6 -6 -5 -5 -5 -5 -5 -4 -4 -4 -4 -4 -3 -3 -3 -3 -3 -2 -2 -2 -2 -1 -1 -1
-1 -1 -0 0 2 2 2 1 1 1 1 1 1 1 1 1 1 0 -1 -1 -1 -1 -2 -2 -3 -3 -4 -4 -4 -4 -4 -4 -5 -5 -5 -4 -4 -4 -5 -5 -6 -6 -6 -6 -6 -6 -5 -5 -5 -5 -4 -4 -4 -4 -3 -3 -3 -2 -2 -2 -2 -2 -1 -1 -1 -0 -0 0 0
-1 -0 0 1 2 2 1 1 0 0 0 0 0 0 0 0 0 0 -0 -1 -1 -1 -1 -1 -2 -2 -3 -4 -4 -3 -3 -3 -3 -4 -5 -5 -6 -6 -6 -6 -5 -5 -5 -5 -5 -5 -4 -4 -4 -4 -3 -3 -3 -2 -2 -1 -1 -1 -0 -0 0 0 0 0 0 0 0 0 0
-0 0 1 1 1 1 0 0 0 0 0 -0 -0 -0 -0 0 0 0 0 0 -0 -1 -1 -1 -1 -1 -2 -2 -2 -2 -2 -2 -2 -3 -4 -5 -6 -6 -6 -6 -5 -4 -4 -4 -4 -3 -3 -3 -3 -2 -2 -2 -2 -2 -1 -1 -0 0 1 1 1 1 1 0 0 0 0 -0 -0
-0 0 1 1 0 0 -0 -0 -0 -0 -0 -1 -1 -1 -0 0 0 0 0 0 0 -1 -1 -1 -0 -0 -0 -0 -0 -1 -1 -2 -2 -2 -3 -4 -4 -5 -5 -5 -5 -4 -4 -4 -4 -3 -3 -2 -2 -2 -2 -2 -2 -2 -1 -1 -1 -0 0 0 -0 -0 -0 -1 -1 -1 -1 -1 -1
0 1 1 1 0 0 -0 -0 -0 -0 -1 -1 -1 -1 -0 0 1 1 1 1 0 -0 -1 -1 -0 1 1 1 1 -0 -1 -2 -2 -2 -3 -3 -3 -3 -3 -3 -3 -4 -4 -4 -4 -4 -3 -3 -2 -2 -2 -1 -1 -1 -1 -1 -1 -1 -1 -1 -1 -1 -2 -2 -2 -2 -2 -2 -2
0 1 1 1 1 0 0 0 -0 -0 -0 -0 -0 -0 0 1 1 1 1 1 1 1 0 0 0 1 1 1 1 0 -1 -2 -2 -2 -3 -3 -3 -3 -2 -2 -3 -3 -3 -4 -4 -4 -4 -3 -3 -2 -2 -2 -2 -1 -1 -2 -2 -2 -2 -2 -2 -2 -3 -3 -3 -3 -3 -3 -3
0 1 1 1 1 1 0 0 -0 -0 -0 0 0 0 0 1 1 1 1 1 1 2 1 1 1 1 0 0 0 -0 -1 -2 -2 -2 -2 -2 -2 -2 -2 -3 -3 -3 -3 -3 -3 -3 -3 -3 -3 -2 -2 -2 -2 -2 -2 -3 -3 -3 -3 -4 -4 -4 -4 -4 -4 -3 -3 -2 -1
Height
5748 5748 5748 5748 5748 5748 5747 5747 5747 5747 5746 5746 5746 5745 5745 5745 5745 5745 5745 5745 5744 5743 5743 5742 5742 5741 5741 5740 5740 5740 5739 5737 5736 5735 5733 5732 5732 5732 5732 5733 5733 5732 5731 5730 5728 5727 5727 5725 5724 5723 5722 5722 5721 5721 5720 5720 5720 5720 5720 5721 5721 5719 5717 5716 5716 5716 5717 5717 5716
5745 5745 5745 5745 5745 5745 5744 5744 5744 5743 5743 5743 5742 5742 5742 5742 5742 5742 5742 5742 5741 5741 5740 5740 5739 5739 5738 5738 5738 5737 5736 5735 5733 5731 5730 5729 5728 5728 5728 5728 5728 5727 5727 5726 5724 5723 5722 5721 5720 5719 5718 5718 5717 5717 5716 5715 5715 5714 5714 5714 5715 5715 5714 5712 5710 5710 5710 5710 5710
5742 5742 5742 5742 5742 5742 5741 5741 5741 5740 5740 5740 5739 5739 5739 5738 5738 5738 5738 5738 5738 5738 5738 5737 5736 5736 5736 5736 5736 5734 5732 5732 5730 5728 5727 5726 5725 5724 5723 5723 5722 5722 5722 5721 5720 5719 5718 5717 5716 5715 5714 5713 5712 5712 5711 5710 5710 5710 5709 5708 5708 5709 5709 5708 5706 5705 5705 5705 5705
5739 5739 5739 5739 5738 5738 5738 5738 5737 5737 5737 5737 5736 5736 5736 5736 5735 5735 5735 5735 5735 5735 5734 5734 5733 5733 5733 5734 5733 5731 5730 5728 5727 5726 5723 5722 5721 5720 5719 5718 5718 5717 5717 5716 5716 5715 5714 5712 5712 5710 5709 5708 5707 5707 5706 5705 5705 5704 5704 5703 5703 5703 5703 5703 5703 5702 5701 5700 5700
5736 5736 5736 5735 5735 5735 5735 5735 5734 5734 5734 5734 5734 5733 5733 5733 5732 5732 5732 5732 5732 5732 5732 5731 5732 5731 5731 5730 5729 5728 5727 5725 5724 5722 5720 5718 5717 5716 5715 5714 5713 5713 5712 5712 5711 5710 5709 5708 5707 5705 5704 5703 5702 5701 5700 5700 5699 5699 5698 5697 5697 5697 5697 5697 5697 5697 5696 5695 5695
5733 5732 5732 5732 5732 5732 5732 5732 5732 5731 5731 5731 5731 5731 5731 5730 5730 5730 5729 5729 5728 5729 5729 5729 5728 5727 5727 5726 5725 5724 5723 5721 5719 5717 5716 5714 5712 5711 5711 5710 5709 5708 5708 5707 5707 5705 5704 5703 5701 5700 5699 5697 5697 5696 5694 5694 5694 5693 5692 5691 5691 5691 5691 5691 5691 5691 5691 5691 5690
5730 5729 5729 5729 5729 5729 5729 5729 5729 5728 5728 5728 5728 5728 5728 5727 5727 5727 5727 5727 5727 5726 5725 5725 5724 5724 5723 5722 5721 5720 5718 5717 5715 5713 5711 5710 5708 5707 5706 5705 5705 5703 5703 5702 5701 5700 5698 5697 5695 5694 5693 5692 5691 5690 5689 5688 5687 5686 5685 5685 5684 5684 5685 5685 5685 5685 5686 5686 5686
5727 5727 5726 5726 5726 5726 5726 5726 5726 5726 5725 5725 5725 5725 5725 5724 5724 5724 5724 5725 5724 5723 5722 5722 5721 5720 5719 5718 5717 5716 5715 5713 5711 5709 5707 5706 5704 5703 5702 5701 5700 5698 5697 5696 5694 5693 5692 5690 5689 5688 5687 5686 5685 5683 5682 5681 5681 5680 5679 5678 5678 5678 5678 5679 5679 5679 5679 5680 5680
5724 5724 5724 5724 5724 5723 5723 5723 5723 5723 5723 5722 5722 5722 5722 5721 5721 5722 5722 5722 5721 5720 5719 5718 5717 5716 5715 5714 5713 5712 5710 5709 5707 5705 5703 5702 5700 5699 5697 5696 5694 5693 5691 5690 5688 5687 5686 5684 5683 5682 5681 5679 5678 5677 5676 5675 5675 5674 5673 5672 5672 5672 5672 5672 5673 5673 5673 5674 5674
5722 5722 5722 5721 5721 5721 5721 5721 5720 5720 5720 5720 5719 5719 5719 5719 5719 5719 5719 5718 5717 5716 5715 5715 5714 5713 5712 5710 5709 5708 5706 5705 5703 5701 5699 5697 5696 5694 5692 5691 5689 5687 5685 5684 5682 5681 5680 5678 5677 5676 5674 5673 5672 5671 5670 5669 5669 5668 5667 5667 5667 5666 5666 5666 5667 5667 5668 5669 5670
5719 5719 5719 5719 5719 5718 5718 5718 5718 5717 5717 5717 5717 5717 5717 5717 5716 5716 5715 5714 5713 5713 5712 5712 5711 5709 5708 5707 5705 5704 5702 5701 5699 5697 5695 5693 5692 5690 5688 5686 5684 5682 5680 5678 5677 5676 5674 5672 5671 5670 5669 5668 5667 5666 5665 5664 5663 5663 5662 5661 5661 5661 5661 5661 5661 5662 5662 5663 5664
5717 5717 5716 5716 5716 5716 5716 5716 5715 5715 5715 5715 5715 5714 5714 5713 5713 5712 5712 5711 5710 5710 5709 5708 5707 5706 5704 5703 5701 5700 5698 5697 5695 5693 5692 5690 5687 5686 5683 5682 5679 5677 5676 5673 5672 5671 5669 5667 5667 5666 5664 5663 5662 5661 5660 5659 5658 5657 5656 5655 5655 5655 5655 5655 5655 5656 5657 5658 5659
5714 5714 5714 5714 5713 5713 5713 5713 5713 5713 5713 5713 5712 5711 5711 5710 5709 5709 5708 5708 5707 5706 5706 5705 5703 5702 5700 5699 5697 5696 5694 5693 5691 5689 5687 5686 5683 5681 5679 5677 5675 5673 5671 5669 5667 5666 5665 5663 5662 5661 5660 5658 5657 5655 5654 5653 5652 5651 5651 5650 5649 5649 5649 5649 5650 5651 5652 5653 5654
5711 5711 5711 5711 5711 5711 5711 5711 5711 5711 5710 5710 5709 5708 5707 5707 5706 5706 5705 5705 5704 5703 5702 5701 5699 5698 5697 5695 5693 5692 5691 5689 5687 5685 5683 5681 5679 5677 5674 5672 5670 5668 5666 5665 5663 5662 5661 5659 5658 5657 5655 5654 5652 5650 5649 5648 5647 5646 5645 5644 5643 5643 5643 5643 5644 5646 5647 5647 5648
5709 5709 5709 5709 5709 5709 5709 5709 5708 5708 5707 5707 5706 5705 5705 5704 5703 5703 5702 5701 5700 5699 5698 5697 5696 5694 5693 5692 5690 5688 5687 5685 5683 5681 5679 5677 5674 5672 5670 5667 5665 5663 5662 5660 5659 5658 5657 5655 5654 5652 5651 5649 5647 5645 5644 5642 5641 5640 5639 5638 5638 5637 5638 5638 5639 5641 5642 5642 5644
5706 5706 5706 5706 5706 5706 5706 5706 5705 5705 5704 5704 5703 5702 5702 5701 5700 5700 5699 5698 5697 5696 5694 5693 5692 5691 5689 5688 5687 5685 5683 5681 5679 5677 5675 5672 5670 5667 5665 5663 5661 5660 5658 5657 5655 5654 5653 5652 5650 5648 5646 5644 5642 5640 5639 5637 5636 5635 5634 5633 5633 5633 5633 5633 5635 5636 5637 5639 5640
5703 5703 5703 5704 5704 5703 5703 5703 5702 5702 5701 5701 5700 5700 5699 5698 5697 5696 5695 5694 5693 5692 5691 5690 5689 5687 5686 5685 5683 5682 5680 5678 5676 5673 5671 5669 5666 5664 5662 5659 5658 5656 5655 5653 5652 5651 5649 5648 5646 5644 5642 5640 5638 5636 5634 5633 5632 5631 5630 5630 5629 5629 5629 5629 5631 5632 5634 5636 5637
5701 5701 5701 5701 5701 5701 5700 5700 5700 5699 5699 5698 5697 5697 5696 5695 5694 5693 5692 5691 5690 5689 5688 5687 5686 5684 5683 5682 5680 5678 5677 5675 5672 5670 5668 5665 5663 5660 5658 5656 5655 5653 5652 5650 5649 5648 5646 5645 5643 5641 5639 5637 5635 5633 5631 5630 5629 5628 5627 5627 5626 5625 5625 5626 5627 5628 5630 5632 5632
5698 5699 5699 5699 5698 5698 5698 5697 5697 5697 5696 5696 5695 5694 5693 5692 5692 5691 5690 5688 5687 5686 5685 5684 5683 5682 5680 5679 5677 5675 5673 5672 5669 5667 5664 5662 5660 5657 5655 5653 5652 5650 5649 5647 5646 5645 5643 5642 5640 5638 5636 5634 5632 5630 5629 5627 5627 5626 5625 5624 5623 5622 5622 5622 5623 5624 5626 5627 5628
5696 5696 5696 5696 5696 5695 5695 5695 5694 5694 5693 5693 5692 5692 5691 5690 5689 5688 5687 5686 5685 5684 5682 5681 5680 5679 5677 5676 5674 5672 5670 5668 5666 5664 5662 5659 5657 5655 5652 5651 5649 5647 5646 5645 5643 5642 5641 5639 5637 5635 5633 5631 5629 5628 5626 5625 5624 5623 5622 5622 5621 5620 5620 5620 5620 5621 5622 5622 5625
5694 5694 5693 5693 5693 5693 5693 5692 5692 5692 5691 5690 5690 5689 5688 5687 5687 5686 5684 5683 5682 5681 5680 5678 5677 5676 5674 5673 5671 5669 5667 5665 5663 5661 5659 5657 5654 5652 5650 5648 5646 5645 5643 5642 5641 5639 5638 5637 5635 5633 5631 5629 5627 5626 5624 5623 5622 5621 5620 5619 5619 5618 5618 5618 5618 5619 5620 5621 5623
5691 5691 5691 5691 5691 5691 5690 5690 5689 5689 5688 5688 5687 5687 5686 5685 5684 5683 5682 5681 5680 5678 5677 5676 5674 5673 5672 5670 5668 5667 5665 5663 5661 5658 5656 5654 5652 5650 5647 5646 5644 5642 5641 5639 5638 5637 5635 5634 5632 5631 5629 5627 5625 5624 5622 5621 5620 5619 5618 5618 5617 5617 5617 5617 5617 5618 5620 5621 5622
5689 5688 5688 5688 5688 5688 5688 5687 5687 5687 5686 5686 5685 5685 5684 5683 5682 5681 5679 5678 5677 5676 5675 5673 5672 5671 5669 5667 5666 5664 5662 5660 5658 5656 5654 5652 5649 5647 5645 5643 5641 5639 5638 5637 5635 5634 5632 5631 5630 5629 5627 5625 5624 5622 5621 5620 5619 5618 5617 5616 5616 5615 5615 5615 5616 5617 5619 5621 5622
5686 5686 5686 5686 5686 5686 5685 5685 5685 5684 5684 5684 5683 5682 5681 5680 5679 5678 5677 5676 5675 5673 5672 5671 5669 5668 5667 5665 5663 5662 5660 5658 5656 5654 5652 5649 5647 5645 5643 5641 5639 5637 5635 5634 5632 5631 5630 5629 5627 5626 5625 5624 5622 5621 5620 5619 5617 5617 5616 5615 5614 5614 5613 5613 5614 5615 5616 5618 5619
5684 5684 5684 5683 5683 5683 5683 5683 5683 5682 5682 5681 5681 5680 5679 5678 5677 5676 5675 5673 5672 5671 5670 5668 5667 5666 5664 5663 5661 5659 5657 5656 5653 5652 5649 5647 5645 5643 5641 5639 5637 5635 5633 5632 5630 5629 5627 5626 5625 5624 5623 5622 5621 5619 5618 5617 5616 5615 5614 5613 5613 5613 5612 5612 5612 5612 5613 5613 5613
5682 5682 5682 5682 5681 5681 5681 5681 5681 5680 5680 5679 5678 5677 5677 5676 5675 5673 5672 5671 5670 5669 5667 5666 5665 5663 5662 5660 5659 5657 5655 5653 5651 5649 5647 5645 5643 5641 5638 5637 5635 5633 5631 5629 5628 5627 5626 5624 5623 5622 5621 5620 5619 5618 5617 5616 5615 5614 5613 5612 5612 5612 5612 5612 5611 5611 5611 5611 5611
5680 5680 5680 5679 5679 5679 5679 5679 5678 5678 5677 5677 5676 5675 5674 5673 5672 5671 5670 5669 5668 5667 5665 5664 5663 5661 5660 5658 5657 5655 5653 5651 5649 5647 5645 5643 5641 5639 5637 5635 5633 5631 5629 5628 5627 5625 5624 5623 5622 5620 5619 5618 5617 5616 5615 5614 5613 5613 5612 5612 5612 5612 5611 5611 5611 5611 5611 5611 5611
5678 5678 5678 5677 5677 5677 5677 5677 5676 5676 5675 5674 5673 5673 5672 5671 5670 5669 5668 5667 5666 5664 5663 5662 5661 5659 5658 5656 5655 5653 5651 5649 5647 5645 5643 5641 5639 5637 5635 5633 5632 5630 5629 5627 5626 5624 5623 5622 5620 5619 5617 5616 5615 5614 5613 5613 5612 5612 5612 5611 5611 5611 5611 5611 5611 5611 5611 5611 5611
5676 5676 5676 5676 5676 5675 5675 5675 5674 5673 5673 5672 5671 5670 5670 5669 5668 5667 5666 5665 5664 5662 5661 5660 5658 5657 5656 5654 5652 5651 5649 5647 5645 5643 5641 5639 5637 5635 5633 5632 5631 5629 5628 5626 5625 5623 5622 5620 5619 5618 5617 5615 5614 5613 5612 5612 5612 5611 5611 5611 5611 5610 5610 5610 5610 5610 5611 5611 5611
5674 5674 5674 5674 5673 5673 5673 5672 5672 5671 5670 5670 5669 5668 5667 5667 5666 5665 5664 5663 5662 5661 5659 5658 5657 5655 5654 5652 5651 5649 5647 5645 5643 5641 5639 5637 5636 5634 5633 5631 5630 5628 5627 5625 5623 5622 5621 5619 5618 5617 5616 5615 5614 5613 5612 5611 5611 5610 5610 5610 5610 5609 5609 5609 5609 5609 5609 5609 5609
5672 5672 5672 5672 5672 5671 5671 5670 5670 5669 5668 5667 5667 5666 5666 5665 5664 5663 5662 5661 5660 5658 5657 5656 5655 5653 5652 5650 5649 5647 5646 5644 5642 5640 5638 5637 5635 5634 5632 5630 5629 5627 5625 5624 5622 5621 5619 5618 5617 5616 5615 5614 5613 5612 5612 5611 5610 5610 5609 5609 5609 5609 5609 5609 5609 5609 5608 5608 5608
5670 5670 5670 5670 5669 5669 5669 5668 5668 5667 5666 5666 5665 5664 5664 5663 5662 5661 5660 5659 5658 5657 5655 5654 5653 5652 5650 5649 5647 5646 5644 5643 5641 5640 5638 5636 5635 5633 5631 5629 5627 5626 5624 5623 5621 5620 5619 5617 5616 5615 5614 5613 5612 5612 5611 5610 5610 5609 5608 5608 5608 5608 5608 5608 5607 5607 5607 5607 5607
5668 5668 5668 5668 5667 5667 5667 5667 5666 5665 5664 5664 5663 5662 5662 5661 5660 5659 5658 5657 5656 5655 5653 5652 5651 5650 5649 5647 5646 5645 5643 5642 5641 5639 5637 5636 5634 5632 5630 5628 5627 5625 5623 5622 5621 5620 5618 5617 5616 5615 5614 5613 5612 5611 5610 5610 5609 5608 5608 5607 5607 5607 5607 5607 5607 5607 5606 5606 5606
5667 5666 5666 5666 5666 5665 5665 5664 5664 5663 5662 5662 5661 5660 5660 5659 5658 5657 5656 5655 5654 5653 5652 5651 5650 5648 5647 5646 5645 5644 5643 5642 5640 5639 5637 5635 5633 5632 5630 5628 5626 5625 5623 5622 5621 5619 5618 5617 5616 5615 5614 5613 5612 5611 5610 5609 5609 5608 5607 5607 5607 5607 5606 5606 5606 5606 5606 5605 5605
5665 5664 5664 5664 5664 5664 5663 5662 5662 5661 5661 5660 5659 5658 5658 5657 5656 5655 5654 5653 5652 5651 5650 5649 5648 5647 5646 5645 5644 5643 5642 5641 5639 5638 5636 5635 5633 5631 5629 5627 5626 5624 5623 5622 5621 5620 5619 5617 5617 5615 5614 5613 5612 5611 5610 5610 5609 5608 5608 5607 5607 5607 5606 5606 5606 5605 5605 5605 5605
5663 5662 5662 5662 5662 5662 5661 5661 5660 5659 5659 5658 5657 5657 5656 5655 5654 5653 5652 5652 5651 5650 5648 5647 5647 5646 5645 5644 5643 5642 5641 5639 5638 5637 5635 5634 5632 5631 5629 5627 5626 5624 5623 5622 5621 5620 5619 5618 5617 5616 5615 5614 5613 5612 5611 5610 5610 5609 5608 5608 5607 5607 5606 5606 5606 5605 5605 5604 5604
5661 5661 5660 5660 5660 5660 5659 5658 5658 5657 5657 5656 5655 5655 5654 5653 5652 5652 5651 5650 5649 5648 5647 5646 5645 5644 5643 5642 5641 5640 5639 5638 5637 5636 5634 5633 5632 5630 5629 5627 5626 5625 5623 5622 5621 5620 5619 5618 5617 5616 5615 5614 5613 5612 5612 5611 5610 5609 5609 5608 5607 5607 5606 5606 5605 5605 5604 5604 5604
5659 5658 5658 5658 5658 5657 5657 5657 5656 5655 5655 5654 5653 5653 5652 5651 5651 5650 5649 5648 5647 5647 5646 5645 5644 5643 5642 5641 5640 5639 5638 5637 5635 5634 5633 5632 5630 5629 5628 5627 5626 5624 5623 5622 5621 5620 5619 5618 5617 5616 5615 5614 5613 5612 5612 5611 5610 5609 5608 5608 5607 5606 5606 5605 5605 5604 5604 5603 5603
5657 5657 5656 5656 5656 5656 5655 5654 5654 5653 5652 5652 5651 5651 5650 5649 5649 5648 5647 5647 5646 5645 5645 5644 5642 5642 5641 5639 5638 5637 5636 5635 5634 5633 5632 5630 5629 5628 5627 5626 5625 5624 5622 5622 5620 5619 5618 5617 5617 5616 5615 5614 5613 5612 5611 5611 5610 5609 5608 5607 5607 5606 5605 5604 5604 5603 5603 5602 5602
5655 5655 5654 5654 5654 5653 5653 5652 5652 5651 5651 5650 5649 5649 5648 5647 5647 5646 5646 5645 5644 5644 5643 5642 5641 5640 5639 5638 5637 5636 5635 5633 5632 5631 5630 5629 5628 5627 5626 5625 5624 5622 5621 5620 5619 5618 5617 5617 5616 5615 5614 5613 5612 5611 5611 5610 5609 5608 5607 5607 5606 5605 5604 5603 5603 5602 5602 5601 5601
5653 5653 5652 5652 5652 5652 5651 5651 5650 5649 5648 5648 5647 5647 5646 5646 5645 5644 5644 5643 5643 5642 5642 5641 5640 5639 5637 5636 5635 5634 5633 5632 5631 5630 5629 5627 5627 5626 5624 5623 5622 5621 5620 5619 5618 5617 5617 5616 5615 5614 5613 5612 5611 5610 5609 5608 5608 5607 5606 5605 5604 5604 5603 5602 5602 5601 5601 5600 5600